Location: Newark
(39.6867°N, 100.6772°W)
Time: 00:49:14
(UTC+00:00)

Vanguard 1 Rocket - Pass Details

Date: 27 October 2019
Orbit: 651 x 4225 km, 34.3° (Epoch: 10 November)

Event Time Altitude Azimuth Distance (km) Brightness Sun altitude
Rises 18:52:36 0° 273° (W) 5,606 11.5 37.1°
Reaches altitude 10° 18:55:35 10° 271° (W) 4,965 11.3 37.0°
Maximum altitude 19:11:31 70° 192° (SSW) 3,661 11.6 36.4°
Drops below altitude 10° 19:37:10 10° 116° (ESE) 7,422 12.2 34.9°
Sets 19:42:57 0° 114° (ESE) 8,372 12.3 34.5°
